Location: Newark
(52.2090°N, 4.1550°W)
Time: 09:43:07
(UTC+00:00)

Vanguard 1 - All Passes

Search period start: 18 September 2019 00:00
Search period end: 28 September 2019 00:00
Orbit: 654 x 3829 km, 34.3° (Epoch: 16 September)

Date Brightness Start Highest point End Pass type
(mag) Time Alt. Az. Time Alt. Az. Time Alt. Az.
18 Sep - 01:45:42 10° SSW 02:02:42 27° SSE 02:16:18 10° ESE visible
18 Sep - 04:06:31 10° SW 04:25:20 39° S 04:37:53 10° ESE visible
18 Sep - 06:31:31 10° WSW 06:47:01 35° SSW 06:56:40 10° SE daylight
18 Sep - 08:59:08 10° WSW 09:06:20 16° SW 09:11:46 10° S daylight
18 Sep - 23:51:27 10° SSE 00:01:28 15° SE 00:10:50 10° ESE visible
19 Sep - 02:05:03 10° SSW 02:23:25 32° SSE 02:37:45 10° ESE visible
19 Sep - 04:27:09 10° WSW 04:46:10 40° S 04:58:39 10° ESE visible
19 Sep - 06:52:47 10° WSW 07:07:34 32° SSW 07:16:56 10° SSE daylight
19 Sep - 09:22:14 10° WSW 09:26:23 12° SW 09:29:54 10° SSW daylight
20 Sep - 00:08:06 10° S 00:21:50 20° SE 00:34:23 10° ESE visible
20 Sep - 02:24:50 10° SW 02:44:12 36° SSE 02:58:57 10° ESE visible
20 Sep - 04:47:59 10° WSW 05:06:58 41° S 05:19:20 10° ESE visible
20 Sep - 07:14:12 10° W 07:28:00 29° SSW 07:36:59 10° SSE daylight
21 Sep - 00:26:11 10° S 00:42:17 25° SE 00:56:44 10° E visible
21 Sep - 02:44:59 10° SW 03:05:01 39° SSE 03:20:00 10° ESE visible
21 Sep - 05:08:59 10° WSW 05:27:44 40° S 05:39:54 10° SE visible
21 Sep - 07:35:49 10° W 07:48:18 25° SW 07:56:46 10° SSE daylight
21 Sep - 22:38:10 10° SE 22:41:35 10° SE 22:45:01 10° ESE visible
22 Sep - 00:45:05 10° SSW 01:02:49 29° SSE 01:18:31 10° E visible
22 Sep - 03:05:24 10° SW 03:25:52 42° S 03:40:54 10° ESE visible
22 Sep - 05:30:06 10° WSW 05:48:25 39° SSW 06:00:19 10° SE visible
22 Sep - 07:57:46 10° W 08:08:28 20° SW 08:16:10 10° S daylight
22 Sep - 22:51:03 10° SSE 23:01:42 15° SE 23:12:17 10° ESE visible
23 Sep - 01:04:32 10° SSW 01:23:27 34° SSE 01:39:58 10° E visible
23 Sep - 03:26:02 10° WSW 03:46:43 44° S 04:01:42 10° ESE visible
23 Sep - 05:51:22 10° W 06:09:01 36° SSW 06:20:36 10° SE daylight
23 Sep - 08:20:17 10° W 08:28:31 16° SW 08:34:54 10° SSW daylight
23 Sep - 23:08:04 10° S 23:21:54 21° SE 23:35:42 10° E visible
24 Sep - 01:24:22 10° SW 01:44:10 38° SSE 02:01:12 10° E visible
24 Sep - 03:46:51 10° WSW 04:07:34 44° S 04:22:25 10° ESE visible
24 Sep - 06:12:45 10° W 06:29:29 32° SSW 06:40:41 10° SSE daylight
24 Sep - 08:44:24 10° WSW 08:48:26 11° SW 08:51:59 10° SW daylight
24 Sep - 23:26:21 10° S 23:42:12 26° SE 23:58:02 10° E visible
25 Sep - 01:44:31 10° SW 02:04:56 41° SSE 02:22:17 10° ESE visible
25 Sep - 04:07:48 10° WSW 04:28:22 43° S 04:43:00 10° SE visible
25 Sep - 06:34:20 10° W 06:49:49 28° SW 07:00:31 10° SSE daylight
25 Sep - 21:38:51 10° SE 21:41:56 10° ESE 21:45:03 10° ESE visible
25 Sep - 23:45:21 10° SSW 00:02:36 30° SE 00:19:51 10° E visible
26 Sep - 02:04:56 10° SW 02:25:47 44° S 02:43:14 10° ESE visible
26 Sep - 04:28:54 10° WSW 04:49:06 42° SSW 05:03:27 10° SE visible
26 Sep - 06:56:12 10° W 07:10:01 24° SW 07:19:59 10° S daylight
26 Sep - 21:51:54 10° SSE 22:01:52 15° SE 22:12:29 10° E visible
27 Sep - 00:04:52 10° SSW 00:23:08 35° SSE 00:41:21 10° E visible
27 Sep - 02:25:33 10° WSW 02:46:38 46° S 03:04:05 10° ESE visible
27 Sep - 04:50:07 10° W 05:09:45 39° SSW 05:23:45 10° SE visible
27 Sep - 07:18:29 10° W 07:30:04 19° SW 07:38:54 10° S daylight
27 Sep - 22:09:04 10° S 22:21:54 20° SE 22:35:58 10° E visible
